TimeEDT,TemperatureF,Dew PointF,Humidity,Sea Level PressureIn,VisibilityMPH,Wind Direction,Wind SpeedMPH,Gust SpeedMPH,PrecipitationIn,Events,Conditions,WindDirDegrees,DateUTC
12:15 AM,53.6,48.2,82,30.02,10.0,SSW,4.6,-,N/A,,Clear,210,2012-11-01 04:15:00
12:35 AM,53.6,48.2,82,30.02,10.0,SSW,4.6,-,N/A,,Clear,210,2012-11-01 04:35:00
12:55 AM,53.6,48.2,82,30.02,10.0,SSW,3.5,-,N/A,,Clear,200,2012-11-01 04:55:00
1:15 AM,53.6,48.2,82,30.02,10.0,SSW,3.5,-,N/A,,Clear,200,2012-11-01 05:15:00
1:35 AM,53.6,46.4,77,30.02,10.0,SW,3.5,-,N/A,,Clear,220,2012-11-01 05:35:00
1:55 AM,53.6,48.2,82,30.01,10.0,SSW,4.6,-,N/A,,Clear,210,2012-11-01 05:55:00
2:15 AM,53.6,48.2,82,30.01,10.0,SSW,4.6,-,N/A,,Clear,200,2012-11-01 06:15:00
2:35 AM,51.8,46.4,82,30.01,8.0,South,5.8,-,N/A,,Clear,190,2012-11-01 06:35:00
2:55 AM,51.8,46.4,82,30.01,7.0,South,4.6,-,N/A,,Clear,190,2012-11-01 06:55:00
3:15 AM,51.8,48.2,88,30.01,9.0,South,4.6,-,N/A,,Clear,190,2012-11-01 07:15:00
3:35 AM,51.8,46.4,82,30.00,10.0,South,3.5,-,N/A,,Clear,180,2012-11-01 07:35:00
3:55 AM,51.8,46.4,82,30.00,9.0,South,3.5,-,N/A,,Clear,180,2012-11-01 07:55:00
4:15 AM,51.8,46.4,82,30.00,7.0,South,4.6,-,N/A,,Clear,180,2012-11-01 08:15:00
4:35 AM,51.8,46.4,82,30.00,2.5,South,4.6,-,N/A,,Clear,180,2012-11-01 08:35:00
4:55 AM,51.8,46.4,82,30.00,2.0,South,4.6,-,N/A,,Clear,190,2012-11-01 08:55:00
5:15 AM,50.0,46.4,87,30.00,1.0,South,4.6,-,N/A,,Clear,180,2012-11-01 09:15:00
5:35 AM,48.2,44.6,87,29.99,8.0,South,4.6,-,N/A,,Clear,180,2012-11-01 09:35:00
5:55 AM,50.0,46.4,87,29.99,8.0,South,4.6,-,N/A,,Clear,190,2012-11-01 09:55:00
6:15 AM,51.8,46.4,82,29.99,7.0,South,3.5,-,N/A,,Clear,190,2012-11-01 10:15:00
6:35 AM,50.0,46.4,87,30.00,7.0,South,3.5,-,N/A,,Clear,190,2012-11-01 10:35:00
6:50 AM,50.0,46.4,87,30.00,5.0,South,3.5,-,N/A,,Clear,190,2012-11-01 10:50:00
6:55 AM,50.0,46.4,87,30.00,8.0,South,4.6,-,N/A,,Clear,180,2012-11-01 10:55:00
7:50 AM,48.2,44.6,87,30.01,5.0,South,4.6,-,N/A,,Clear,180,2012-11-01 11:50:00
8:52 AM,55.4,51.8,88,30.02,6.0,South,4.6,-,N/A,,Clear,190,2012-11-01 12:52:00
9:50 AM,62.6,55.4,77,30.03,7.0,SSW,5.8,-,N/A,,Clear,200,2012-11-01 13:50:00
10:50 AM,71.6,57.2,60,30.02,10.0,WSW,10.4,-,N/A,,Scattered Clouds,250,2012-11-01 14:50:00
11:50 AM,71.6,57.2,60,30.02,10.0,North,11.5,-,N/A,,Scattered Clouds,350,2012-11-01 15:50:00
12:50 PM,71.6,57.2,60,30.02,10.0,WNW,6.9,-,N/A,,Scattered Clouds,300,2012-11-01 16:50:00
3:50 PM,73.4,57.2,57,29.94,10.0,WSW,10.4,16.1,N/A,,Mostly Cloudy,240,2012-11-01 19:50:00
5:50 PM,73.4,53.6,50,29.95,6.0,West,5.8,-,N/A,,Smoke,280,2012-11-01 21:50:00
6:50 PM,68.0,53.6,60,29.97,7.0,West,5.8,-,N/A,,Clear,270,2012-11-01 22:50:00
7:55 PM,62.6,51.8,68,29.99,10.0,SW,5.8,-,N/A,,Clear,230,2012-11-01 23:55:00
8:15 PM,62.6,50.0,63,29.99,10.0,West,3.5,-,N/A,,Clear,270,2012-11-02 00:15:00
8:35 PM,60.8,48.2,63,30.00,10.0,West,4.6,-,N/A,,Clear,260,2012-11-02 00:35:00
8:55 PM,59.0,48.2,67,30.01,10.0,WSW,4.6,-,N/A,,Clear,240,2012-11-02 00:55:00
9:15 PM,59.0,48.2,67,30.01,10.0,West,3.5,-,N/A,,Clear,260,2012-11-02 01:15:00
9:35 PM,55.4,48.2,77,30.02,10.0,Calm,Calm,-,N/A,,Clear,0,2012-11-02 01:35:00
9:55 PM,55.4,48.2,77,30.03,10.0,SW,3.5,-,N/A,,Clear,220,2012-11-02 01:55:00
10:15 PM,55.4,48.2,77,30.03,10.0,Calm,Calm,-,N/A,,Clear,0,2012-11-02 02:15:00
10:35 PM,53.6,48.2,82,30.04,10.0,Calm,Calm,-,N/A,,Clear,0,2012-11-02 02:35:00
10:55 PM,51.8,46.4,82,30.04,10.0,South,3.5,-,N/A,,Clear,190,2012-11-02 02:55:00
11:15 PM,51.8,46.4,82,30.04,10.0,Calm,Calm,-,N/A,,Clear,0,2012-11-02 03:15:00
11:35 PM,51.8,46.4,82,30.04,10.0,Calm,Calm,-,N/A,,Clear,0,2012-11-02 03:35:00
11:55 PM,50.0,46.4,87,30.05,9.0,Calm,Calm,-,N/A,,Clear,0,2012-11-02 03:55:00